Regional Weather Roundup
Issued by NWS

Home | Current Version | Previous Version | Graphics & Text | Print | Product List | Glossary On
Versions: 1 2 3 4 5 6 7 8 9 10 11 12 13 14 15 16 17 18 19 20 21 22 23 24 25 26 27 28 29 30 31 32 33 34 35 36 37 38 39 40 41 42 43 44 45 46 47 48 49 50
000
ASUS43 KLMK 311902
RWRKY
KENTUCKY REGIONAL WEATHER ROUNDUP
NATIONAL WEATHER SERVICE LOUISVILLE KY
300 PM EDT THU JUL 31 2014

NOTE "FAIR" INDICATES FEW OR NO CLOUDS BELOW 12,000 FEET
WITH NO SIGNIFICANT WEATHER AND/OR OBSTRUCTIONS TO VISIBILITY.

KYZ001>023-026-027-061>063-070>075-312000-
WESTERN AND SOUTH CENTRAL KENTUCKY

CITY           SKY/WX    TMP DP  RH WIND       PRES   REMARKS
PADUCAH        MOSUNNY   83  60  45 SW8       30.09F
HENDERSON      SUNNY     82  61  47 S5        30.08F
OWENSBORO      MOSUNNY   83  59  44 W5        30.09F
HOPKINSVILLE   PTSUNNY   83  55  38 N7        30.09F
BOWLING GREEN  PTSUNNY   85  53  33 VRB5      30.09F
GLASGOW        PTSUNNY   80  56  43 E3        30.11S
$$

KYZ024-025-028>034-038-045-046-053-312000-
NORTH CENTRAL KENTUCKY

CITY           SKY/WX    TMP DP  RH WIND       PRES   REMARKS
LOUISVILLE/SDF MOSUNNY   84  57  39 VRB6      30.09F
LOUISVILLE/LOU SUNNY     83  56  39 SW9       30.09F
FORT KNOX      MOSUNNY   80  60  48 VRB2      30.09F
$$

KYZ035>037-039>044-047>052-055>060-089>105-312000-
NORTHEAST KENTUCKY

CITY           SKY/WX    TMP DP  RH WIND       PRES   REMARKS
LEXINGTON      MOSUNNY   80  55  42 SE3       30.12F
COVINGTON      MOSUNNY   80  58  46 W6        30.10S
FRANKFORT      MOSUNNY   80  54  40 VRB3      30.10F
$$

KYZ054-064>069-076>088-106>120-312000-
SOUTHEAST KENTUCKY

CITY           SKY/WX    TMP DP  RH WIND       PRES   REMARKS
JACKSON        MOSUNNY   79  59  50 CALM      30.14F
LONDON         MOSUNNY   80  56  43 CALM      30.13F
SOMERSET       MOSUNNY   81  54  39 CALM      30.13S
MIDDLESBORO    PTSUNNY   80  62  53 NE6       30.12F
MONTICELLO     PTCLDY    84  61  45 N6        30.13F
$$




USA.gov is the U.S. government's official web portal to all federal, state and local government web resources and services.